Regional Weather Roundup
Issued by NWS

Home | Current Version | Previous Version | Text Only | Print | Product List | Glossary On
Versions: 1 2 3 4 5 6 7 8 9 10 11 12 13 14 15 16 17 18 19 20 21 22 23 24 25 26 27 28 29 30 31 32 33 34 35 36 37 38 39 40 41 42 43 44 45 46 47 48 49 50
000
ASUS43 KDMX 271907
RWRIA

WEATHER ROUNDUP FOR IOWA
NATIONAL WEATHER SERVICE DES MOINES IA
100 PM CST SAT DEC 27 2014

NOTE: "FAIR" INDICATES FEW OR NO CLOUDS BELOW 12,000 FEET WITH NO
SIGNIFICANT WEATHER AND/OR OBSTRUCTIONS TO VISIBILITY.

* - THESE STATIONS ARE NOT NWS STATIONS...THUS NOT UNDER NWS
QUALITY CONTROL.  THEY ALSO DO NOT REPORT WEATHER SUCH
AS PRECIPITATION OR FOG.

IAZ001>003-012>014-020>022-031>034-043>046-272000-
   NORTHWEST IOWA

CITY           SKY/WX    TMP DP  RH WIND       PRES   REMARKS
CARROLL *      PTSUNNY   21  18  86 NW15      30.18F WCI   8
CHEROKEE *     FLURRIES  19  16  86 W10       30.19F WCI   8
DENISON *      CLOUDY    25  19  80 NW9       30.18S WCI  15
LE MARS *      SUNNY     18  12  79 NW10      30.21F WCI   6
ORANGE CITY *  MOSUNNY   18  12  79 W14       30.17F WCI   4
SHELDON *      MOSUNNY   18  12  79 W10       30.15F WCI   6
SIOUX CITY     SUNNY     21  13  71 NW7       30.22F WCI  12
SPENCER        SUNNY     20  12  71 NW16      30.16F WCI   6
STORM LAKE *   SUNNY     18  14  86 NW15      30.16F WCI   3
$$

IAZ055>058-069>071-079>083-090>094-272000-
   SOUTHWEST IOWA

CITY           SKY/WX    TMP DP  RH WIND       PRES   REMARKS
ATLANTIC *     CLOUDY    25  21  86 NW14      30.20F WCI  13
AUDUBON *      PTSUNNY   25  18  74 NW8       30.18S WCI  16
CLARINDA *     CLOUDY    27  21  80 W12       30.25S WCI  16
COUNCIL BLFS * SUNNY     25  19  80 NW9       30.20F WCI  15
CRESTON *      CLOUDY    27  21  80 NW10G20   30.19S WCI  17
HARLAN  *      PTSUNNY   25  21  86 NW10      30.24S WCI  15
LAMONI         CLOUDY    28  23  81 NW15      30.18F WCI  16
RED OAK *      CLOUDY    27  21  80 NW8       30.23F WCI  18
SHENANDOAH *   CLOUDY    27  21  80 NW8       30.25S WCI  18
$$

IAZ047>049-059>061-072>074-084-272000-
   CENTRAL IOWA

CITY           SKY/WX    TMP DP  RH WIND       PRES   REMARKS
AMES           PTSUNNY   26  19  74 NW14      30.16S WCI  14
ANKENY *       CLOUDY    28  23  80 W17       30.17F WCI  16
CHARITON *     CLOUDY    30  23  74 NW15      30.16F WCI  19
DES MOINES     PTSUNNY   29  21  72 NW15      30.17F WCI  18
GRINNELL*      CLOUDY    28  25  86 W16       30.13F WCI  17
KNOXVILLE *    CLOUDY    28  23  80 W15       30.15F WCI  17
MARSHALLTOWN   CLOUDY    26  22  84 W18       30.13R WCI  13
PELLA *        CLOUDY    29  24  81 NW13G22   30.17S WCI  19
PERRY *        PTSUNNY   28  23  80 NW12      30.18F WCI  18
$$

IAZ004>006-015-016-023>025-035-036-272000-
   NORTH CENTRAL IOWA

CITY           SKY/WX    TMP DP  RH WIND       PRES   REMARKS
ALGONA *       SUNNY     19  10  68 NW12G18   30.15S WCI   7
CLARION *      MOSUNNY   21  18  86 NW15      30.14F WCI   8
ESTHERVILLE    SUNNY     19  12  74 W14       30.14F WCI   6
FORT DODGE *   SUNNY     21  12  68 W10       30.17F WCI  10
MASON CITY     CLOUDY    21  17  84 NW18      30.13S WCI   6
FOREST CITY *  CLOUDY    21  18  86 NW15G21   30.12S WCI   8
IOWA FALLS *   CLOUDY    23  19  86 NW17      30.14F WCI   9
$$

IAZ007>011-017>019-026>030-037>042-050>054-066-272000-
   NORTHEAST IOWA

CITY           SKY/WX    TMP DP  RH WIND       PRES   REMARKS
CEDAR RAPIDS   CLOUDY    31  26  82 W23G29    30.09R WCI  18
CHARLES CITY * CLOUDY    25  21  86 W18G25    30.11R WCI  11
CLINTON *      CLOUDY    34  27  75 W21G26    30.08R WCI  22
DECORAH *      CLOUDY    27  23  86 NW10G21   30.04R WCI  17
DUBUQUE        CLOUDY    30  26  85 W16G25    30.01S WCI  19
MONTICELLO *   CLOUDY    30  28  93 W16G23    30.07R WCI  19
OELWEIN *      CLOUDY    28  25  86 W20G28    30.07R WCI  15
WATERLOO       CLOUDY    27  23  85 NW20G26   30.10R WCI  13
$$

IAZ064-065-067-068-078-272000-
   EAST CENTRAL IOWA

CITY           SKY/WX    TMP DP  RH WIND       PRES   REMARKS
DAVENPORT      CLOUDY    32  26  78 W21       30.08R WCI  20
IOWA CITY      CLOUDY    31  25  78 W21       30.12S WCI  18
MT. PLEASANT * CLOUDY    32  27  80 W14G22    30.14S WCI  22
MUSCATINE *    CLOUDY    34  27  75 W15G25    30.13R WCI  24
QUAD CITIES    CLOUDY    34  25  69 W21G28    30.09R WCI  22
$$

IAZ062-063-075>077-085>089-095>099-272000-
   SOUTHEAST IOWA

CITY           SKY/WX    TMP DP  RH WIND       PRES   REMARKS
BURLINGTON     CLOUDY    35  28  75 NW13      30.13R WCI  26
FAIRFIELD *    CLOUDY    32  25  74 NW16      30.14F WCI  21
FORT MADISON * CLOUDY    36  30  80 NW15G21   30.13F WCI  26
KEOKUK *       CLOUDY    36  28  75 W14G21    30.13F WCI  27
OSKALOOSA *    CLOUDY    30  25  80 NW18      30.15S WCI  18
CENTERVILLE *  PTSUNNY   32  25  74 NW15G21   30.18R WCI  22
OTTUMWA        CLOUDY    31  25  78 W15G23    30.14S WCI  20
WASHINGTON *   CLOUDY    32  28  86 W15       30.13R WCI  22
$$

ABBREVIATIONS USED IN REMARKS
   TC - TEMPERATURES IN CELSIUS
  WCI - WIND CHILL INDEX
   HX - HEAT INDEX
  VSB - VISIBILITY
$$




USA.gov is the U.S. government's official web portal to all federal, state and local government web resources and services.